Tracking 20083 objects as of 9-Dec-2019
HD Live streaming from Space Station
objects crossing your sky now

SL-14 DEB

Track SL-14 DEB now!
10-day predictions


NORAD ID: 39972
Int'l Code: 1987-068CY
Perigee: 929.1 km
Apogee: 956.6 km
Inclination: 82.5 °
Period: 103.7 minutes
Semi major axis: 7313 km
RCS: 0.0139 m2 (small)
Launch date: August 18, 1987
Source: Commonwealth of Independent States (former USSR) (CIS)
Launch site: PLESETSK MISSILE AND SPACE COMPLEX (PKMTR)

Note: This is SATELLITE DEBRIS
aabbcc
Your satellite tracking list
Your tracking list is empty




NASA's NSSDC Master Catalog

Two Line Element Set (TLE):
1 39972U 87068CY  19341.28805435  .00000212  00000-0  16564-3 0  9992
2 39972  82.4925 323.7438 0018802 321.3055  38.6759 13.87984751845750
Source of the keplerian elements: AFSPC